[[{"header":{"parameterUnit":"m.s-1","parameterCategory":1,"la1":30.2991,"la2":30.254,"lo1":-89.0895,"lo2":-89.0444,"dy":0.0017,"dx":0.0017,"nx":28,"ny":28,"refTime":"2023-08-13T09:00:00:Z","depth":0,"parameterNumber":2,"parameterNumberName":"U-component_of_WINDS"},"data":[0,0,0,0,0,0,0,0,0,0,0,0,0,0,0,0,0,0,0,0,0,0,0,0,0,0,0,0,0,0,0,0,0,0,0,0,0,0,0,0,0,0,0,0,0,0,0,0,0,0,0,0,0,0,0,0,0,0,2.3097,2.3097,0,2.3111,2.3111,2.3111,2.3079,2.3078,2.3077,2.3076,2.3091,2.3092,2.3094,0,0,0,0,0,0,0,0,0,0,0,0,0,2.3044,2.3045,2.3097,2.3097,2.3097,2.3111,2.3111,2.3111,2.3079,2.3078,2.3077,2.3076,2.3091,2.3092,2.3094,0,0,0,0,0,0,0,0,0,0,0,0,0,2.3063,2.3046,2.3097,2.3083,2.3082,2.311,2.3111,2.3111,2.308,2.3078,2.3077,2.3075,2.309,2.3092,2.3094,2.3137,0,0,2.31,2.3101,0,0,0,0,0,0,0,0,2.3062,2.3065,2.3085,2.3084,2.3083,2.3092,2.3098,2.312,2.308,2.308,2.3076,2.3074,2.3092,2.3094,2.31,2.3138,2.3138,2.31,2.3102,2.3102,2.3103,0,0,0,0,0,0,0,2.3061,2.3065,2.3102,2.3085,2.3084,2.3076,2.3078,2.3102,2.3095,2.308,2.3078,2.308,2.3092,2.3098,2.31,2.3138,2.31,2.3102,2.3103,2.3104,2.3213,2.3214,0,0,0,0,0,0,2.3061,2.3064,2.3102,2.3103,2.3069,2.3079,2.308,2.309,2.3094,2.3094,2.3081,2.3079,2.3096,2.3098,2.3101,2.3152,2.3102,2.3104,2.3105,2.3211,2.3213,2.3215,0,0,0,0,0,0,2.306,2.3065,2.3101,2.3083,2.3087,2.3081,2.3093,2.3091,2.3098,2.3095,2.3094,2.3089,2.3094,2.3098,2.3128,2.3152,2.3105,2.3107,2.3209,2.3212,2.3214,2.3254,0,0,0,0,0,0,2.3059,2.3065,2.3081,2.3083,2.3088,2.3128,2.3095,2.3093,2.3101,2.3098,2.3102,2.3102,2.3094,2.3125,2.313,2.3154,2.3109,2.3207,2.321,2.3213,2.325,2.3257,2.3263,0,0,0,0,0,2.3057,2.3091,2.3082,2.3086,2.3107,2.313,2.3132,2.3122,2.3103,2.312,2.3118,2.3102,2.3148,2.3129,2.3134,2.3158,2.3205,2.3209,2.3213,2.3247,2.3256,2.3263,0,0,0,0,0,0,2.3091,2.3091,2.3081,2.3116,2.3123,2.3124,2.3144,2.3131,2.3144,2.314,2.3127,2.3128,2.3161,2.3163,2.3141,2.3201,2.3174,2.3179,2.3198,2.3206,2.3213,2.3212,2.311,0,0,0,0,0,2.3103,2.3121,2.312,2.3152,2.3156,2.315,2.3159,2.315,2.3157,2.316,2.316,2.3168,2.3184,2.3195,2.321,2.325,2.3251,2.327,2.3276,2.3282,2.3286,2.3308,2.3317,2.3227,2.3227,2.3227,0,0,2.3128,2.313,2.3142,2.3159,2.3163,2.3182,2.3152,2.3173,2.3188,2.3163,2.3192,2.3193,2.32,2.3236,2.3252,2.3238,2.3311,2.3287,2.3291,2.3292,2.3313,2.3321,2.3329,2.323,2.3229,2.3229,0,0,2.3182,2.3185,2.3212,2.3217,2.3224,2.322,2.3227,2.323,2.323,2.3259,2.3241,2.3258,2.3286,2.3293,2.3299,2.3358,2.3343,2.3363,2.3397,2.3419,2.3426,2.3432,2.3453,2.3461,2.3367,2.3368,2.3368,0,2.3211,2.3239,2.3228,2.3251,2.3259,2.3238,2.3266,2.3271,2.3283,2.329,2.3274,2.331,2.3314,2.3351,2.3365,2.3371,2.3379,2.3362,2.3425,2.3431,2.3437,2.3457,2.3465,2.337,2.337,2.3369,2.3369,0,2.3275,2.3295,2.3316,2.3328,2.3339,2.3364,2.3357,2.337,2.3361,2.3358,2.3389,2.3392,2.3408,2.3416,2.3407,2.3453,2.3444,2.3427,2.34,2.3448,2.3467,2.3474,2.3373,2.3372,2.3372,2.3371,0,0,2.3351,2.3357,2.3365,2.337,2.3377,2.3393,2.3417,2.3433,2.3444,2.3453,2.3474,2.3499,2.3484,2.3492,2.3484,2.3503,2.355,2.3484,2.3484,2.3496,2.36,2.3613,2.3622,2.354,2.3542,2.3543,2.36,0,2.3405,2.3447,2.3438,2.348,2.3498,2.3479,2.3501,2.3508,2.3506,2.3522,2.3521,2.3539,2.3518,2.3523,2.3541,2.354,2.357,2.3536,2.356,2.3561,2.3558,2.3631,2.3644,2.3698,2.3607,2.3608,2.3609,0,2.3473,2.3485,2.3529,2.3533,2.3541,2.356,2.3574,2.359,2.3598,2.3595,2.3605,2.3594,2.3619,2.3592,2.3627,2.3604,2.3613,2.3614,2.3616,2.3618,2.3588,2.3635,2.3714,2.3722,2.362,2.3619,2.3618,0,2.3524,2.3551,2.3581,2.3586,2.3593,2.3607,2.361,2.3617,2.3627,2.3639,2.3646,2.3661,2.3669,2.3682,2.3675,2.3656,2.3711,2.3683,2.371,2.3711,2.3723,2.3722,2.3805,2.3729,2.3729,2.3729,2.3729,0,2.3585,2.3613,2.3604,2.3623,2.3653,2.3643,2.3674,2.3675,2.3681,2.3699,2.3684,2.3702,2.3692,2.3709,2.3704,2.3734,2.3738,2.3737,2.3736,2.3739,2.3739,2.3745,2.3741,2.3731,2.373,2.373,2.373,0,2.3647,2.3643,2.3674,2.3678,2.3679,2.3702,2.3705,2.3722,2.372,2.3744,2.3749,2.3746,2.3766,2.3761,2.3782,2.3779,2.3817,2.381,2.3814,2.3812,2.384,2.3837,2.3929,2.3941,2.3857,2.3858,2.3859,0,2.3687,2.3707,2.3714,2.3725,2.3729,2.3748,2.3758,2.375,2.3761,2.3772,2.3789,2.3807,2.3821,2.3853,2.3853,2.387,2.3864,2.3895,2.3866,2.3869,2.3864,2.3863,2.3866,2.39,2.3901,2.3902,2.3903,0,2.3757,2.3754,2.3769,2.3785,2.3798,2.3809,2.3819,2.3829,2.3821,2.3835,2.3855,2.3866,2.3889,2.3907,2.3922,2.3926,2.3914,2.3912,2.3919,2.3922,2.3924,2.3923,2.383,2.391,2.3909,2.3909,2.3908,2.3908,2.3809,2.3827,2.3834,2.3852,2.3859,2.3869,2.3886,2.3886,2.3903,2.392,2.3914,2.3937,2.3945,2.3964,2.397,2.3988,2.3977,2.3987,2.399,2.3992,2.3996,2.3921,2.3991,2.3991,2.3991,2.3991,2.3991,0,2.3879,2.3883,2.39,2.3914,2.3929,2.3916,2.3927,2.394,2.396,2.3969,2.3983,2.4007,2.4025,2.4027,2.4044,2.4058,2.4053,2.4063,2.4062,2.4063,2.4005,2.3997,2.4067,2.4067,2.4067,2.4067,2.4067,2.4067,2.3917,2.3947,2.3945,2.3978,2.3982,2.4004,2.4011,2.4021,2.4028,2.4055,2.407,2.4071,2.4077,2.4095,2.4111,2.4111,2.4118,2.4131,2.4129,2.4075,2.4067,2.406,2.4052,2.4132,2.4132,2.4185,2.4185,2.4186]},{"header":{"parameterUnit":"m.s-1","parameterCategory":1,"la1":30.2991,"la2":30.254,"lo1":-89.0895,"lo2":-89.0444,"dy":0.0017,"dx":0.0017,"nx":28,"ny":28,"refTime":"2023-08-13T09:00:00:Z","depth":0,"parameterNumber":3,"parameterNumberName":"V-component_of_WINDS"},"data":[0,0,0,0,0,0,0,0,0,0,0,0,0,0,0,0,0,0,0,0,0,0,0,0,0,0,0,0,0,0,0,0,0,0,0,0,0,0,0,0,0,0,0,0,0,0,0,0,0,0,0,0,0,0,0,0,0,0,0.125,0.1249,0,0.1234,0.1233,0.1233,0.1236,0.1236,0.1236,0.1237,0.122,0.1219,0.1219,0,0,0,0,0,0,0,0,0,0,0,0,0,0.1281,0.128,0.125,0.1249,0.1249,0.1234,0.1233,0.1233,0.1236,0.1236,0.1236,0.1237,0.122,0.1219,0.1218,0,0,0,0,0,0,0,0,0,0,0,0,0,0.1266,0.128,0.125,0.1249,0.1248,0.1234,0.1233,0.1233,0.1236,0.1236,0.1236,0.1237,0.122,0.1219,0.1218,0.1204,0,0,0.1215,0.1215,0,0,0,0,0,0,0,0,0.1267,0.1265,0.1249,0.1249,0.1248,0.1237,0.1238,0.1223,0.1236,0.124,0.1237,0.1237,0.1225,0.1224,0.122,0.1203,0.1202,0.1215,0.1214,0.1214,0.1214,0,0,0,0,0,0,0,0.1268,0.1266,0.1243,0.1249,0.1248,0.1248,0.1247,0.1235,0.1231,0.124,0.124,0.1238,0.1225,0.1221,0.122,0.1202,0.1215,0.1214,0.1213,0.1213,0.117,0.1169,0,0,0,0,0,0,0.1269,0.1267,0.1244,0.1243,0.1259,0.1247,0.1246,0.124,0.1231,0.123,0.1238,0.1238,0.1223,0.1221,0.1219,0.12,0.1214,0.1213,0.1212,0.117,0.117,0.1169,0,0,0,0,0,0,0.127,0.1267,0.1244,0.1255,0.1252,0.1247,0.124,0.124,0.1236,0.1229,0.1228,0.1235,0.1223,0.122,0.1207,0.1199,0.1213,0.1212,0.1171,0.117,0.117,0.1162,0,0,0,0,0,0,0.1271,0.1268,0.1262,0.1255,0.1251,0.1233,0.124,0.1239,0.1234,0.1234,0.1226,0.1225,0.1223,0.1209,0.1206,0.1198,0.1211,0.1172,0.1171,0.117,0.1163,0.1161,0.116,0,0,0,0,0,0.1272,0.1261,0.1262,0.1259,0.1245,0.1233,0.1231,0.1229,0.1233,0.1227,0.1223,0.1225,0.1201,0.1207,0.1204,0.1196,0.1172,0.1171,0.117,0.1164,0.1162,0.116,0,0,0,0,0,0,0.1269,0.126,0.1261,0.1248,0.1241,0.1233,0.1226,0.1227,0.1219,0.1219,0.1217,0.1215,0.1201,0.1197,0.1205,0.118,0.1187,0.1185,0.1183,0.1181,0.118,0.1181,0.121,0,0,0,0,0,0.1266,0.1258,0.1251,0.1239,0.1236,0.1232,0.1226,0.1225,0.1218,0.1215,0.121,0.1203,0.1193,0.1187,0.1178,0.1163,0.116,0.1155,0.1154,0.1152,0.1151,0.114,0.1138,0.1165,0.1165,0.1165,0,0,0.1262,0.1256,0.1251,0.1239,0.1233,0.1224,0.1229,0.1219,0.1212,0.1214,0.12,0.1196,0.1188,0.1173,0.1166,0.1169,0.1142,0.1151,0.115,0.1149,0.1139,0.1136,0.1134,0.1165,0.1165,0.1165,0,0,0.1248,0.1243,0.1232,0.1226,0.1218,0.1215,0.1212,0.1204,0.1201,0.1188,0.1189,0.118,0.1164,0.1157,0.1152,0.1134,0.1135,0.1131,0.1122,0.1112,0.111,0.1108,0.11,0.1097,0.1129,0.1129,0.1129,0,0.1243,0.1229,0.1227,0.1216,0.121,0.1211,0.12,0.1194,0.1183,0.1179,0.1182,0.1161,0.1156,0.1139,0.1134,0.113,0.1126,0.1132,0.111,0.1108,0.1106,0.1099,0.1096,0.1129,0.1129,0.1129,0.1129,0,0.1222,0.1212,0.1205,0.1193,0.1187,0.1176,0.1172,0.1165,0.1164,0.116,0.1146,0.1139,0.1128,0.1124,0.1123,0.1106,0.1108,0.1111,0.1117,0.1103,0.1096,0.1093,0.1128,0.1128,0.1128,0.1128,0,0,0.1206,0.1193,0.119,0.1185,0.1175,0.1167,0.1155,0.1144,0.1138,0.113,0.112,0.1105,0.1108,0.1101,0.11,0.1091,0.1075,0.1095,0.1095,0.1091,0.1054,0.1051,0.1048,0.1076,0.1076,0.1075,0.1054,0,0.1191,0.1171,0.1168,0.115,0.114,0.114,0.1129,0.1122,0.1118,0.1108,0.1103,0.1093,0.1097,0.1093,0.1085,0.1079,0.1068,0.1081,0.1065,0.1065,0.1067,0.1045,0.1042,0.1023,0.1052,0.1051,0.1051,0,0.117,0.1161,0.1142,0.1131,0.1127,0.1118,0.1107,0.1098,0.1089,0.1086,0.1078,0.1078,0.1065,0.1072,0.1053,0.1062,0.1055,0.1051,0.1051,0.1049,0.1057,0.1041,0.1017,0.1013,0.1047,0.1047,0.1048,0,0.1159,0.1142,0.1128,0.1123,0.1111,0.1105,0.1099,0.109,0.1083,0.1073,0.1069,0.1057,0.1051,0.1042,0.1037,0.1043,0.1019,0.1026,0.1015,0.1015,0.101,0.101,0.0983,0.1007,0.1007,0.1007,0.1007,0,0.1141,0.1129,0.1122,0.1114,0.11,0.1096,0.1082,0.1077,0.1069,0.1058,0.1058,0.1048,0.1043,0.1032,0.1029,0.1013,0.101,0.1007,0.1006,0.1007,0.1007,0.1002,0.1003,0.1006,0.1006,0.1006,0.1007,0,0.1127,0.1122,0.1106,0.1096,0.1093,0.1083,0.1074,0.1065,0.106,0.1047,0.1043,0.1036,0.1023,0.1018,0.1002,0.0999,0.0981,0.0981,0.0984,0.0983,0.0973,0.0973,0.0941,0.0936,0.0964,0.0964,0.0963,0,0.1115,0.1106,0.1094,0.1087,0.1082,0.107,0.1063,0.1059,0.1051,0.1039,0.1031,0.1018,0.1007,0.0986,0.0978,0.0966,0.0966,0.0955,0.0964,0.0964,0.0964,0.0964,0.0963,0.0953,0.0953,0.0953,0.0953,0,0.1096,0.1093,0.1083,0.1071,0.1062,0.1052,0.1043,0.1037,0.1031,0.1022,0.1008,0.1,0.0983,0.097,0.0956,0.095,0.095,0.095,0.0946,0.0947,0.0948,0.0946,0.0978,0.0951,0.0951,0.0951,0.0951,0.0951,0.1082,0.1073,0.1063,0.105,0.1043,0.1033,0.1024,0.1018,0.1006,0.0992,0.099,0.0975,0.0965,0.0947,0.094,0.0928,0.093,0.0926,0.0924,0.0923,0.0922,0.095,0.0925,0.0925,0.0925,0.0925,0.0925,0,0.1061,0.1054,0.1043,0.1029,0.1019,0.102,0.1009,0.1,0.0987,0.0978,0.0967,0.095,0.0936,0.0928,0.0914,0.0905,0.0905,0.0902,0.0902,0.09,0.0921,0.0925,0.0902,0.0902,0.0902,0.0902,0.0902,0.0902,0.1049,0.1033,0.1029,0.1009,0.1002,0.0988,0.0981,0.0972,0.0964,0.0946,0.0934,0.0929,0.0919,0.0904,0.0891,0.0889,0.0883,0.088,0.0877,0.0897,0.0899,0.0901,0.0905,0.0879,0.0879,0.0858,0.0858,0.0857]}]]